User: anonymous   Login
Location: Newark
(32.3788°N, 35.6119°E)
Time: 15:51:25
(UTC+00:00)
Language:

N. Korean satellite - Orbit

View from above orbital plane
View from above orbital plane
View from above satellite
View from above satellite

Ground track
Ground track

The orbit data is extracted from the following two-line orbital elements,

1 39026U 12072A   19232.92989785 +.00000651 +00000-0 +26143-4 0  9998
2 39026 097.2124 234.0368 0036429 234.9922 124.7897 15.27928078371196
Epoch (UTC): 20 August 2019 22:19:03
Eccentricity: 0.0036429
inclination: 97.2124°
perigee height: 457 km
apogee height: 507 km
right ascension of ascending node: 234.0368°
argument of perigee: 234.9922°
revolutions per day: 15.27928078
mean anomaly at epoch: 124.7897°
orbit number at epoch: 37119

The dashed part of the orbit path shows where the satellite is in the earth's shadow,  

DLR